| time (UTC) | temp C | wind direction | speed KPH | gust KPH | rain 1hr cm | rain 24hr cm | rain mn cm | humidity % | barometer mb |
| 20260506051052 | 18 | 210 | 11.3 | 24.1 | 0.00 | 0.10 | 0.00 | 59 | 1008.7 |
| 20260506050551 | 18 | 200 | 12.9 | 24.1 | 0.00 | 0.10 | 0.00 | 59 | 1008.7 |
| 20260506050104 | 18 | 211 | 11.3 | 19.3 | 0.00 | 0.10 | 0.00 | 59 | 1008.6 |
| 20260506045051 | 18 | 183 | 9.7 | 20.9 | 0.00 | 0.10 | 0.00 | 58 | 1008.8 |
| 20260506044555 | 18 | 175 | 9.7 | 20.9 | 0.00 | 0.10 | 0.00 | 58 | 1008.7 |
| 20260506044053 | 19 | 200 | 9.7 | 16.1 | 0.00 | 0.10 | 0.00 | 58 | 1008.7 |
| 20260506043551 | 18 | 182 | 8.0 | 16.1 | 0.00 | 0.10 | 0.00 | 57 | 1008.7 |
| 20260506043054 | 19 | 197 | 8.0 | 19.3 | 0.00 | 0.10 | 0.00 | 57 | 1008.7 |
| 20260506042551 | 19 | 211 | 9.7 | 19.3 | 0.00 | 0.10 | 0.00 | 56 | 1008.8 |
| 20260506042052 | 19 | 170 | 8.0 | 20.9 | 0.00 | 0.10 | 0.00 | 56 | 1008.9 |
| 20260506041556 | 19 | 177 | 9.7 | 25.7 | 0.00 | 0.10 | 0.00 | 56 | 1008.8 |
| 20260506041052 | 20 | 181 | 12.9 | 25.7 | 0.00 | 0.10 | 0.00 | 55 | 1008.7 |
| 20260506040551 | 20 | 158 | 11.3 | 20.9 | 0.00 | 0.10 | 0.00 | 55 | 1008.8 |
| 20260506040056 | 20 | 227 | 12.9 | 20.9 | 0.00 | 0.10 | 0.00 | 54 | 1008.7 |
| 20260506035555 | 20 | 200 | 11.3 | 22.5 | 0.00 | 0.10 | 0.10 | 54 | 1008.7 |
| 20260506035052 | 20 | 187 | 12.9 | 22.5 | 0.00 | 0.10 | 0.10 | 54 | 1008.8 |
| 20260506034613 | 20 | 181 | 9.7 | 22.5 | 0.00 | 0.10 | 0.10 | 54 | 1008.8 |
| 20260506034054 | 20 | 204 | 11.3 | 22.5 | 0.00 | 0.10 | 0.10 | 53 | 1008.8 |
| 20260506033551 | 20 | 200 | 9.7 | 22.5 | 0.00 | 0.10 | 0.10 | 53 | 1008.7 |
| 20260506033054 | 20 | 194 | 11.3 | 22.5 | 0.00 | 0.10 | 0.10 | 52 | 1008.6 |
| 20260506032554 | 20 | 204 | 11.3 | 20.9 | 0.00 | 0.10 | 0.10 | 52 | 1008.7 |
| 20260506032053 | 20 | 216 | 11.3 | 20.9 | 0.00 | 0.10 | 0.10 | 51 | 1008.7 |
| 20260506031607 | 20 | 191 | 11.3 | 20.9 | 0.00 | 0.10 | 0.10 | 51 | 1008.7 |
| 20260506031052 | 20 | 184 | 9.7 | 22.5 | 0.00 | 0.10 | 0.10 | 51 | 1008.7 |
| 20260506030550 | 20 | 217 | 9.7 | 27.4 | 0.00 | 0.10 | 0.10 | 51 | 1008.6 |
| 20260506030053 | 20 | 160 | 9.7 | 27.4 | 0.00 | 0.10 | 0.10 | 50 | 1008.7 |
| 20260506025553 | 20 | 179 | 12.9 | 27.4 | 0.00 | 0.10 | 0.10 | 50 | 1008.6 |
| 20260506025051 | 20 | 203 | 9.7 | 25.7 | 0.00 | 0.10 | 0.10 | 50 | 1008.6 |
| 20260506024616 | 21 | 165 | 12.9 | 25.7 | 0.00 | 0.10 | 0.10 | 49 | 1008.7 |
| 20260506024051 | 21 | 205 | 8.0 | 27.4 | 0.00 | 0.10 | 0.10 | 49 | 1008.7 |
| 20260506023554 | 21 | 173 | 14.5 | 27.4 | 0.00 | 0.10 | 0.10 | 48 | 1008.8 |
| 20260506023100 | 21 | 187 | 12.9 | 25.7 | 0.00 | 0.10 | 0.10 | 48 | 1008.8 |
| 20260506022553 | 21 | 215 | 11.3 | 25.7 | 0.00 | 0.10 | 0.10 | 48 | 1008.8 |
| 20260506022051 | 21 | 195 | 9.7 | 22.5 | 0.00 | 0.10 | 0.10 | 48 | 1008.8 |
| 20260506021559 | 21 | 188 | 11.3 | 25.7 | 0.00 | 0.10 | 0.10 | 47 | 1008.8 |
| 20260506021054 | 21 | 204 | 8.0 | 25.7 | 0.00 | 0.10 | 0.10 | 47 | 1008.7 |
| 20260506020554 | 21 | 205 | 9.7 | 27.4 | 0.00 | 0.10 | 0.10 | 46 | 1008.7 |
| 20260506015551 | 22 | 201 | 14.5 | 30.6 | 0.00 | 0.10 | 0.10 | 45 | 1008.6 |
| 20260506015051 | 22 | 166 | 16.1 | 30.6 | 0.00 | 0.10 | 0.10 | 45 | 1008.6 |
| 20260506014559 | 22 | 189 | 12.9 | 32.2 | 0.00 | 0.10 | 0.10 | 45 | 1008.5 |
| 20260506014055 | 22 | 168 | 17.7 | 32.2 | 0.00 | 0.10 | 0.10 | 44 | 1008.5 |
| 20260506013555 | 22 | 204 | 11.3 | 24.1 | 0.00 | 0.10 | 0.10 | 44 | 1008.4 |
| 20260506013110 | 22 | 206 | 11.3 | 24.1 | 0.00 | 0.10 | 0.10 | 43 | 1008.3 |
| 20260506012553 | 22 | 230 | 12.9 | 38.6 | 0.00 | 0.10 | 0.10 | 43 | 1008.2 |
| 20260506012050 | 22 | 178 | 14.5 | 43.5 | 0.00 | 0.10 | 0.10 | 42 | 1008.1 |
| 20260506011610 | 22 | 189 | 16.1 | 43.5 | 0.00 | 0.10 | 0.10 | 42 | 1008.0 |
| 20260506011051 | 22 | 202 | 12.9 | 25.7 | 0.00 | 0.10 | 0.10 | 43 | 1008.0 |
| 20260506010551 | 22 | 199 | 12.9 | 30.6 | 0.00 | 0.10 | 0.10 | 43 | 1008.0 |
| 20260506010058 | 22 | 155 | 12.9 | 30.6 | 0.00 | 0.10 | 0.10 | 42 | 1007.9 |
| 20260506005552 | 22 | 212 | 12.9 | 24.1 | 0.00 | 0.10 | 0.10 | 42 | 1007.8 |
| 20260506005053 | 22 | 202 | 12.9 | 20.9 | 0.00 | 0.10 | 0.10 | 41 | 1007.8 |
| 20260506004554 | 22 | 207 | 11.3 | 20.9 | 0.00 | 0.10 | 0.10 | 41 | 1007.7 |
| 20260506004051 | 22 | 189 | 8.0 | 20.9 | 0.00 | 0.10 | 0.10 | 41 | 1007.8 |
| 20260506003551 | 22 | 202 | 8.0 | 27.4 | 0.00 | 0.10 | 0.10 | 41 | 1007.7 |
| 20260506003053 | 23 | 169 | 11.3 | 27.4 | 0.00 | 0.10 | 0.10 | 41 | 1007.5 |
| 20260506002551 | 23 | 224 | 14.5 | 32.2 | 0.00 | 0.10 | 0.10 | 40 | 1007.5 |
| 20260506002051 | 23 | 169 | 12.9 | 32.2 | 0.00 | 0.10 | 0.10 | 40 | 1007.5 |
| 20260506001555 | 23 | 183 | 12.9 | 29.0 | 0.00 | 0.10 | 0.10 | 40 | 1007.4 |
| 20260506001051 | 23 | 170 | 16.1 | 33.8 | 0.00 | 0.10 | 0.10 | 40 | 1007.3 |
| 20260506000551 | 23 | 218 | 16.1 | 33.8 | 0.00 | 0.10 | 0.10 | 40 | 1007.3 |
| 20260506000052 | 23 | 210 | 12.9 | 30.6 | 0.00 | 0.10 | 0.10 | 40 | 1007.4 |
| 20260505235551 | 23 | 208 | 16.1 | 32.2 | 0.00 | 0.10 | 0.10 | 39 | 1007.3 |
| 20260505235052 | 23 | 168 | 14.5 | 32.2 | 0.00 | 0.10 | 0.10 | 39 | 1007.2 |
| 20260505234552 | 23 | 184 | 11.3 | 30.6 | 0.00 | 0.10 | 0.10 | 38 | 1007.2 |
| 20260505234051 | 23 | 216 | 12.9 | 33.8 | 0.00 | 0.10 | 0.10 | 37 | 1007.1 |
| 20260505233554 | 23 | 151 | 19.3 | 38.6 | 0.00 | 0.10 | 0.10 | 37 | 1007.2 |
| 20260505233055 | 23 | 173 | 16.1 | 38.6 | 0.00 | 0.10 | 0.10 | 37 | 1007.1 |
| 20260505232552 | 24 | 192 | 20.9 | 38.6 | 0.00 | 0.10 | 0.10 | 38 | 1007.3 |
| 20260505232058 | 24 | 216 | 12.9 | 33.8 | 0.00 | 0.10 | 0.10 | 38 | 1007.2 |
| 20260505231556 | 24 | 204 | 16.1 | 43.5 | 0.00 | 0.10 | 0.10 | 37 | 1007.2 |
| 20260505231054 | 24 | 218 | 17.7 | 43.5 | 0.00 | 0.10 | 0.10 | 37 | 1007.1 |
| 20260505230551 | 24 | 204 | 19.3 | 40.2 | 0.00 | 0.10 | 0.10 | 37 | 1007.0 |
| 20260505230104 | 24 | 201 | 17.7 | 41.8 | 0.00 | 0.10 | 0.10 | 37 | 1007.1 |
| 20260505225551 | 24 | 170 | 24.1 | 43.5 | 0.00 | 0.10 | 0.10 | 36 | 1007.0 |
| 20260505225052 | 25 | 211 | 20.9 | 45.1 | 0.00 | 0.10 | 0.10 | 37 | 1006.9 |
| 20260505224600 | 25 | 152 | 20.9 | 45.1 | 0.00 | 0.10 | 0.10 | 36 | 1006.8 |
| 20260505224051 | 25 | 207 | 19.3 | 41.8 | 0.00 | 0.10 | 0.10 | 37 | 1006.8 |
| 20260505223553 | 25 | 215 | 20.9 | 38.6 | 0.00 | 0.10 | 0.10 | 37 | 1006.8 |
| 20260505223108 | 25 | 171 | 17.7 | 43.5 | 0.00 | 0.10 | 0.10 | 37 | 1006.8 |
| 20260505222554 | 25 | 216 | 20.9 | 43.5 | 0.00 | 0.10 | 0.10 | 37 | 1006.7 |
| 20260505222054 | 25 | 189 | 19.3 | 40.2 | 0.00 | 0.10 | 0.10 | 37 | 1006.7 |
| 20260505221555 | 25 | 182 | 19.3 | 37.0 | 0.00 | 0.10 | 0.10 | 37 | 1006.6 |
| 20260505221056 | 25 | 191 | 14.5 | 33.8 | 0.00 | 0.10 | 0.10 | 38 | 1006.6 |
| 20260505220557 | 25 | 173 | 14.5 | 30.6 | 0.00 | 0.10 | 0.10 | 38 | 1006.6 |
| 20260505220108 | 25 | 171 | 17.7 | 40.2 | 0.00 | 0.10 | 0.10 | 38 | 1006.6 |
| 20260505215555 | 25 | 220 | 17.7 | 40.2 | 0.00 | 0.10 | 0.10 | 37 | 1006.7 |
| 20260505215051 | 25 | 179 | 17.7 | 53.1 | 0.00 | 0.10 | 0.10 | 37 | 1006.6 |
| 20260505214553 | 25 | 173 | 24.1 | 53.1 | 0.00 | 0.10 | 0.10 | 36 | 1006.6 |
| 20260505214051 | 25 | 162 | 22.5 | 43.5 | 0.00 | 0.10 | 0.10 | 36 | 1006.8 |
| 20260505213555 | 25 | 175 | 14.5 | 43.5 | 0.00 | 0.10 | 0.10 | 37 | 1006.7 |
| 20260505213100 | 25 | 183 | 22.5 | 43.5 | 0.00 | 0.10 | 0.10 | 36 | 1006.7 |
| 20260505212554 | 25 | 213 | 20.9 | 49.9 | 0.00 | 0.10 | 0.10 | 37 | 1006.7 |
| 20260505212051 | 25 | 219 | 19.3 | 49.9 | 0.00 | 0.10 | 0.10 | 36 | 1006.7 |
| 20260505211559 | 25 | 177 | 24.1 | 45.1 | 0.00 | 0.10 | 0.10 | 36 | 1006.8 |
| 20260505211051 | 25 | 164 | 16.1 | 45.1 | 0.00 | 0.10 | 0.10 | 36 | 1006.8 |
| 20260505210550 | 25 | 207 | 20.9 | 45.1 | 0.00 | 0.10 | 0.10 | 37 | 1006.7 |
| 20260505210058 | 25 | 152 | 22.5 | 41.8 | 0.00 | 0.10 | 0.10 | 36 | 1006.7 |
| 20260505205554 | 25 | 214 | 22.5 | 38.6 | 0.00 | 0.10 | 0.10 | 35 | 1006.6 |
| 20260505205052 | 25 | 189 | 16.1 | 41.8 | 0.00 | 0.10 | 0.10 | 35 | 1006.6 |
| 20260505204601 | 25 | 221 | 22.5 | 41.8 | 0.00 | 0.10 | 0.10 | 35 | 1006.6 |
| 20260505204051 | 25 | 208 | 19.3 | 41.8 | 0.00 | 0.10 | 0.10 | 37 | 1006.5 |
| 20260505203551 | 25 | 254 | 14.5 | 45.1 | 0.00 | 0.10 | 0.10 | 36 | 1006.5 |
| 20260505203100 | 25 | 208 | 25.7 | 45.1 | 0.00 | 0.10 | 0.10 | 35 | 1006.6 |
| 20260505202551 | 25 | 208 | 22.5 | 35.4 | 0.00 | 0.10 | 0.10 | 36 | 1006.4 |
| 20260505202052 | 25 | 209 | 19.3 | 40.2 | 0.00 | 0.10 | 0.10 | 35 | 1006.5 |
| 20260505201559 | 26 | 204 | 12.9 | 40.2 | 0.00 | 0.10 | 0.10 | 36 | 1006.5 |
| 20260505201051 | 25 | 182 | 20.9 | 41.8 | 0.00 | 0.10 | 0.10 | 38 | 1006.7 |
| 20260505200556 | 25 | 199 | 22.5 | 41.8 | 0.00 | 0.10 | 0.10 | 37 | 1006.7 |
| 20260505200054 | 25 | 211 | 19.3 | 41.8 | 0.00 | 0.10 | 0.10 | 37 | 1006.8 |
| 20260505195553 | 26 | 207 | 19.3 | 51.5 | 0.00 | 0.10 | 0.10 | 36 | 1006.8 |
| 20260505195052 | 26 | 162 | 16.1 | 51.5 | 0.00 | 0.10 | 0.10 | 36 | 1006.8 |
| 20260505194605 | 26 | 219 | 22.5 | 40.2 | 0.00 | 0.10 | 0.10 | 36 | 1006.7 |
| 20260505194055 | 26 | 249 | 12.9 | 37.0 | 0.00 | 0.10 | 0.10 | 37 | 1006.8 |
| 20260505193551 | 25 | 216 | 16.1 | 37.0 | 0.00 | 0.10 | 0.10 | 36 | 1006.8 |
| 20260505193056 | 25 | 169 | 16.1 | 40.2 | 0.00 | 0.10 | 0.10 | 36 | 1006.8 |
| 20260505192550 | 25 | 179 | 16.1 | 45.1 | 0.00 | 0.10 | 0.10 | 36 | 1006.8 |
| 20260505192051 | 25 | 199 | 27.4 | 45.1 | 0.00 | 0.10 | 0.10 | 37 | 1006.9 |
| 20260505191558 | 25 | 204 | 19.3 | 41.8 | 0.00 | 0.10 | 0.10 | 36 | 1006.9 |
| 20260505191051 | 26 | 225 | 19.3 | 35.4 | 0.00 | 0.10 | 0.10 | 36 | 1007.0 |
| 20260505190555 | 26 | 211 | 16.1 | 32.2 | 0.00 | 0.10 | 0.10 | 36 | 1006.9 |
| 20260505190053 | 26 | 214 | 20.9 | 33.8 | 0.00 | 0.10 | 0.10 | 36 | 1007.1 |
| 20260505185554 | 26 | 193 | 17.7 | 33.8 | 0.00 | 0.10 | 0.10 | 36 | 1007.3 |
| 20260505185051 | 26 | 191 | 11.3 | 25.7 | 0.00 | 0.10 | 0.10 | 36 | 1007.3 |
| 20260505184555 | 26 | 200 | 11.3 | 38.6 | 0.00 | 0.10 | 0.10 | 33 | 1007.3 |
| 20260505184051 | 26 | 207 | 20.9 | 38.6 | 0.00 | 0.10 | 0.10 | 33 | 1007.4 |
| 20260505183555 | 26 | 245 | 12.9 | 46.7 | 0.00 | 0.10 | 0.10 | 34 | 1007.6 |
| 20260505183101 | 26 | 258 | 16.1 | 46.7 | 0.00 | 0.10 | 0.10 | 33 | 1007.5 |
| 20260505182554 | 26 | 206 | 16.1 | 38.6 | 0.00 | 0.10 | 0.10 | 34 | 1007.6 |
| 20260505182051 | 26 | 245 | 19.3 | 38.6 | 0.00 | 0.10 | 0.10 | 35 | 1007.6 |
| 20260505181555 | 26 | 206 | 17.7 | 41.8 | 0.00 | 0.10 | 0.10 | 34 | 1007.6 |
| 20260505181051 | 26 | 189 | 19.3 | 41.8 | 0.00 | 0.10 | 0.10 | 36 | 1007.7 |
| 20260505180550 | 26 | 178 | 20.9 | 38.6 | 0.00 | 0.10 | 0.10 | 35 | 1007.7 |
| 20260505180056 | 26 | 189 | 12.9 | 30.6 | 0.00 | 0.10 | 0.10 | 36 | 1007.9 |
| 20260505175550 | 26 | 237 | 11.3 | 30.6 | 0.00 | 0.10 | 0.10 | 39 | 1008.0 |
| 20260505175054 | 25 | 206 | 17.7 | 33.8 | 0.00 | 0.10 | 0.10 | 37 | 1008.0 |
| 20260505174557 | 25 | 259 | 17.7 | 38.6 | 0.00 | 0.10 | 0.10 | 38 | 1007.9 |
| 20260505174054 | 26 | 214 | 16.1 | 38.6 | 0.00 | 0.10 | 0.10 | 36 | 1007.9 |
| 20260505173551 | 26 | 229 | 12.9 | 27.4 | 0.00 | 0.10 | 0.10 | 38 | 1008.0 |
| 20260505173056 | 25 | 273 | 11.3 | 27.4 | 0.00 | 0.10 | 0.10 | 41 | 1008.0 |
| 20260505172551 | 26 | 237 | 12.9 | 27.4 | 0.00 | 0.10 | 0.10 | 39 | 1008.2 |
| 20260505172051 | 25 | 204 | 12.9 | 25.7 | 0.00 | 0.10 | 0.10 | 41 | 1008.2 |
| 20260505171555 | 26 | 156 | 9.7 | 24.1 | 0.00 | 0.10 | 0.10 | 40 | 1008.2 |
| 20260505171053 | 26 | 219 | 6.4 | 24.1 | 0.00 | 0.10 | 0.10 | 40 | 1008.1 |
| 20260505170550 | 25 | 216 | 11.3 | 25.7 | 0.00 | 0.10 | 0.10 | 42 | 1008.2 |
| 20260505170057 | 25 | 233 | 6.4 | 25.7 | 0.00 | 0.10 | 0.10 | 43 | 1008.3 |
| 20260505165551 | 25 | 181 | 8.0 | 32.2 | 0.00 | 0.10 | 0.10 | 43 | 1008.5 |
| 20260505165051 | 25 | 206 | 12.9 | 32.2 | 0.00 | 0.10 | 0.10 | 44 | 1008.6 |
| 20260505164601 | 25 | 199 | 8.0 | 29.0 | 0.00 | 0.10 | 0.10 | 43 | 1008.6 |
| 20260505164051 | 25 | 193 | 12.9 | 29.0 | 0.00 | 0.10 | 0.10 | 42 | 1008.7 |
| 20260505163550 | 25 | 241 | 11.3 | 29.0 | 0.00 | 0.10 | 0.10 | 43 | 1008.8 |
| 20260505163100 | 25 | 166 | 11.3 | 29.0 | 0.00 | 0.10 | 0.10 | 43 | 1008.8 |
| 20260505162557 | 25 | 215 | 4.8 | 24.1 | 0.00 | 0.10 | 0.10 | 43 | 1008.9 |
| 20260505162051 | 25 | 204 | 6.4 | 25.7 | 0.00 | 0.10 | 0.10 | 42 | 1008.9 |
| 20260505161553 | 25 | 209 | 6.4 | 32.2 | 0.00 | 0.10 | 0.10 | 44 | 1008.9 |
| 20260505161053 | 25 | 229 | 11.3 | 32.2 | 0.00 | 0.10 | 0.10 | 42 | 1008.9 |
| 20260505160555 | 25 | 191 | 6.4 | 29.0 | 0.00 | 0.10 | 0.10 | 44 | 1008.9 |
| 20260505153109 | 23 | 229 | 4.8 | 24.1 | 0.00 | 0.10 | 0.10 | 49 | 1009.2 |
| 20260505152550 | 23 | 219 | 6.4 | 24.1 | 0.00 | 0.10 | 0.10 | 48 | 1009.3 |
| 20260505152052 | 22 | 206 | 11.3 | 20.9 | 0.00 | 0.10 | 0.10 | 51 | 1009.4 |
| 20260505151557 | 22 | 187 | 9.7 | 20.9 | 0.00 | 0.10 | 0.10 | 51 | 1009.5 |
| 20260505151052 | 22 | 216 | 6.4 | 25.7 | 0.00 | 0.10 | 0.10 | 51 | 1009.6 |
| 20260505150551 | 22 | 210 | 12.9 | 30.6 | 0.00 | 0.10 | 0.10 | 52 | 1009.6 |
| 20260505140551 | 19 | 206 | 8.0 | 25.7 | 0.00 | 0.10 | 0.10 | 62 | 1009.9 |
| 20260505140107 | 19 | 203 | 12.9 | 25.7 | 0.00 | 0.10 | 0.10 | 61 | 1010.0 |
| 20260505124552 | 16 | 219 | 6.4 | 14.5 | 0.00 | 0.10 | 0.10 | 71 | 1010.1 |
| 20260505124051 | 16 | 165 | 9.7 | 14.5 | 0.00 | 0.10 | 0.10 | 71 | 1010.1 |
| 20260505123550 | 16 | 169 | 4.8 | 17.7 | 0.00 | 0.10 | 0.10 | 73 | 1010.0 |
| 20260505123104 | 15 | 219 | 6.4 | 17.7 | 0.00 | 0.10 | 0.10 | 72 | 1010.1 |
| 20260505122554 | 15 | 219 | 8.0 | 17.7 | 0.00 | 0.10 | 0.10 | 73 | 1010.1 |
| 20260505122051 | 15 | 221 | 8.0 | 19.3 | 0.00 | 0.10 | 0.10 | 74 | 1010.1 |
| 20260505121600 | 15 | 207 | 12.9 | 19.3 | 0.00 | 0.10 | 0.10 | 73 | 1010.2 |
| 20260505121054 | 15 | 223 | 9.7 | 19.3 | 0.00 | 0.10 | 0.10 | 74 | 1010.1 |
| 20260505120551 | 15 | 189 | 4.8 | 22.5 | 0.00 | 0.10 | 0.10 | 76 | 1010.1 |
| 20260505115555 | 14 | 204 | 6.4 | 12.9 | 0.00 | 0.10 | 0.10 | 77 | 1009.9 |
| 20260505115051 | 14 | 166 | 3.2 | 9.7 | 0.00 | 0.10 | 0.10 | 78 | 1009.8 |
| 20260505114558 | 14 | 160 | 4.8 | 9.7 | 0.00 | 0.10 | 0.10 | 78 | 1009.7 |
| 20260505114052 | 13 | 174 | 4.8 | 9.7 | 0.00 | 0.10 | 0.10 | 78 | 1009.8 |
| 20260505113553 | 13 | 161 | 1.6 | 4.8 | 0.00 | 0.10 | 0.10 | 79 | 1009.7 |
| 20260505113100 | 13 | 177 | 0.0 | 6.4 | 0.00 | 0.10 | 0.10 | 80 | 1009.8 |
| 20260505112552 | 13 | 177 | 1.6 | 6.4 | 0.00 | 0.10 | 0.10 | 80 | 1009.7 |
| 20260505112054 | 13 | 192 | 1.6 | 9.7 | 0.00 | 0.10 | 0.10 | 82 | 1009.7 |
| 20260505111557 | 12 | 0 | 3.2 | 9.7 | 0.00 | 0.10 | 0.10 | 82 | 1009.7 |
| 20260505111054 | 12 | 166 | 3.2 | 9.7 | 0.00 | 0.10 | 0.10 | 82 | 1009.7 |
| 20260505110552 | 12 | 168 | 3.2 | 6.4 | 0.00 | 0.10 | 0.10 | 83 | 1009.7 |
| 20260505102050 | 11 | 0 | 1.6 | 12.9 | 0.03 | 0.10 | 0.10 | 82 | 1009.4 |
| 20260505101552 | 11 | 181 | 8.0 | 12.9 | 0.03 | 0.10 | 0.10 | 82 | 1009.4 |
| 20260505101051 | 11 | 170 | 3.2 | 11.3 | 0.05 | 0.10 | 0.10 | 82 | 1009.2 |
| 20260505100552 | 12 | 176 | 4.8 | 12.9 | 0.08 | 0.10 | 0.10 | 82 | 1009.1 |
| 20260505100055 | 12 | 205 | 8.0 | 12.9 | 0.08 | 0.10 | 0.10 | 81 | 1009.1 |
| 20260505095555 | 12 | 173 | 6.4 | 14.5 | 0.08 | 0.10 | 0.10 | 81 | 1009.0 |
| 20260505095054 | 12 | 208 | 8.0 | 17.7 | 0.10 | 0.10 | 0.10 | 82 | 1009.1 |
| 20260505094558 | 12 | 187 | 8.0 | 17.7 | 0.10 | 0.10 | 0.10 | 83 | 1009.0 |
| 20260505094051 | 12 | 176 | 9.7 | 17.7 | 0.10 | 0.10 | 0.10 | 83 | 1009.0 |
| 20260505093551 | 12 | 172 | 9.7 | 17.7 | 0.10 | 0.10 | 0.10 | 83 | 1009.1 |
| 20260505093051 | 12 | 183 | 1.6 | 4.8 | 0.08 | 0.08 | 0.08 | 81 | 1009.1 |
| 20260505092551 | 12 | 360 | 1.6 | 6.4 | 0.08 | 0.08 | 0.08 | 80 | 1008.8 |
| 20260505092050 | 12 | 6 | 3.2 | 6.4 | 0.08 | 0.08 | 0.08 | 79 | 1009.1 |
| 20260505091557 | 12 | 10 | 3.2 | 4.8 | 0.08 | 0.08 | 0.08 | 77 | 1009.4 |
| 20260505091050 | 12 | 317 | 1.6 | 6.4 | 0.05 | 0.05 | 0.05 | 76 | 1009.7 |
| 20260505090550 | 13 | 294 | 3.2 | 11.3 | 0.03 | 0.03 | 0.03 | 76 | 1009.8 |
| 20260505090059 | 13 | 272 | 0.0 | 16.1 | 0.03 | 0.03 | 0.03 | 74 | 1009.6 |
| 20260505085551 | 13 | 299 | 4.8 | 16.1 | 0.03 | 0.03 | 0.03 | 71 | 1009.6 |
| 20260505085051 | 13 | 241 | 1.6 | 6.4 | 0.00 | 0.00 | 0.00 | 68 | 1009.6 |
| 20260505084554 | 13 | 243 | 1.6 | 4.8 | 0.00 | 0.00 | 0.00 | 65 | 1009.7 |
| 20260505084054 | 13 | 0 | 1.6 | 3.2 | 0.00 | 0.00 | 0.00 | 65 | 1009.7 |
| 20260505083550 | 13 | 299 | 0.0 | 3.2 | 0.00 | 0.00 | 0.00 | 64 | 1009.6 |
| 20260505083057 | 13 | 0 | 0.0 | 3.2 | 0.00 | 0.00 | 0.00 | 63 | 1009.3 |
| 20260505082553 | 13 | 202 | 0.0 | 3.2 | 0.00 | 0.00 | 0.00 | 63 | 1009.3 |
| 20260505082051 | 13 | 202 | 1.6 | 3.2 | 0.00 | 0.00 | 0.00 | 62 | 1009.3 |
| 20260505081602 | 13 | 0 | 1.6 | 3.2 | 0.00 | 0.00 | 0.00 | 61 | 1009.1 |
| 20260505081051 | 13 | 202 | 0.0 | 1.6 | 0.00 | 0.00 | 0.00 | 61 | 1008.9 |
| 20260505080551 | 13 | 0 | 0.0 | 3.2 | 0.00 | 0.00 | 0.00 | 61 | 1008.9 |
| 20260505080055 | 13 | 0 | 1.6 | 6.4 | 0.00 | 0.00 | 0.00 | 61 | 1008.9 |
| 20260505075553 | 13 | 202 | 1.6 | 6.4 | 0.00 | 0.00 | 0.00 | 61 | 1008.8 |
| 20260505075052 | 13 | 202 | 1.6 | 4.8 | 0.00 | 0.00 | 0.00 | 61 | 1008.9 |
| 20260505074610 | 13 | 211 | 1.6 | 4.8 | 0.00 | 0.00 | 0.00 | 60 | 1008.8 |
| 20260505074051 | 14 | 211 | 0.0 | 3.2 | 0.00 | 0.00 | 0.00 | 60 | 1008.9 |
| 20260505073552 | 14 | 211 | 0.0 | 4.8 | 0.00 | 0.00 | 0.00 | 60 | 1008.9 |
| 20260505073100 | 14 | 211 | 1.6 | 4.8 | 0.00 | 0.00 | 0.00 | 60 | 1008.9 |
| 20260505072551 | 14 | 204 | 1.6 | 4.8 | 0.00 | 0.00 | 0.00 | 59 | 1008.9 |
| 20260505072053 | 14 | 0 | 1.6 | 8.0 | 0.00 | 0.00 | 0.00 | 59 | 1008.9 |
| 20260505071557 | 14 | 198 | 3.2 | 8.0 | 0.00 | 0.00 | 0.00 | 59 | 1009.0 |
| 20260505071051 | 14 | 215 | 3.2 | 6.4 | 0.00 | 0.00 | 0.00 | 59 | 1008.9 |
| 20260505070550 | 14 | 215 | 1.6 | 4.8 | 0.00 | 0.00 | 0.00 | 58 | 1008.9 |
| 20260505070058 | 14 | 210 | 1.6 | 6.4 | 0.00 | 0.00 | 0.00 | 58 | 1008.9 |
| 20260505065554 | 14 | 210 | 1.6 | 6.4 | 0.00 | 0.00 | 0.00 | 58 | 1008.9 |
| 20260505065050 | 14 | 195 | 1.6 | 4.8 | 0.00 | 0.00 | 0.00 | 58 | 1008.9 |
| 20260505064604 | 14 | 204 | 1.6 | 4.8 | 0.00 | 0.00 | 0.00 | 58 | 1008.9 |
| 20260505064051 | 14 | 224 | 1.6 | 4.8 | 0.00 | 0.00 | 0.00 | 58 | 1008.9 |
| 20260505063552 | 14 | 224 | 1.6 | 4.8 | 0.00 | 0.00 | 0.00 | 58 | 1009.1 |
| 20260505063058 | 14 | 0 | 0.0 | 4.8 | 0.00 | 0.00 | 0.00 | 57 | 1009.1 |
| 20260505062552 | 14 | 224 | 1.6 | 4.8 | 0.00 | 0.00 | 0.00 | 57 | 1009.1 |
| 20260505062051 | 14 | 199 | 0.0 | 4.8 | 0.00 | 0.00 | 0.00 | 56 | 1009.2 |
| 20260505061624 | 14 | 0 | 0.0 | 9.7 | 0.00 | 0.00 | 0.00 | 56 | 1009.2 |
| 20260505061051 | 14 | 0 | 1.6 | 9.7 | 0.00 | 0.00 | 0.00 | 56 | 1009.1 |
| 20260505060556 | 14 | 194 | 1.6 | 6.4 | 0.00 | 0.00 | 0.00 | 56 | 1009.1 |